Time,TemperatureF,DewpointF,PressureIn,WindDirection,WindDirectionDegrees,WindSpeedMPH,WindSpeedGustMPH,Humidity,HourlyPrecipIn,Conditions,Clouds,dailyrainin,SoftwareType,DateUTC
2013-01-21 00:01:00,11.2,6.8,30.10,SSW,211,0.0,0.0,82,0.00,,---,0.00,VWS V14.01,2013-01-21 05:01:00,
2013-01-21 00:03:00,11.2,6.8,30.10,SSW,211,0.0,0.0,82,0.00,,---,0.00,VWS V14.01,2013-01-21 05:03:00,
2013-01-21 00:04:00,11.2,6.8,30.10,SSW,211,0.0,0.0,82,0.00,,---,0.00,VWS V14.01,2013-01-21 05:04:00,
2013-01-21 00:08:00,11.2,6.8,30.10,SSW,211,0.0,0.0,82,0.00,,---,0.00,VWS V14.01,2013-01-21 05:08:00,
2013-01-21 00:14:00,11.2,6.8,30.10,SSW,211,0.0,0.0,82,0.00,,---,0.00,VWS V14.01,2013-01-21 05:14:00,
2013-01-21 00:19:00,11.2,6.8,30.10,SSW,211,0.0,0.0,82,0.00,,---,0.00,VWS V14.01,2013-01-21 05:19:00,
2013-01-21 00:24:00,11.2,7.1,30.10,SSW,211,0.0,0.0,83,0.00,,---,0.00,VWS V14.01,2013-01-21 05:24:00,
2013-01-21 00:29:00,11.2,7.1,30.10,SSW,211,0.0,0.0,83,0.00,,---,0.00,VWS V14.01,2013-01-21 05:29:00,
2013-01-21 00:34:00,11.2,7.1,30.10,SSW,211,0.0,0.0,83,0.00,,---,0.00,VWS V14.01,2013-01-21 05:34:00,
2013-01-21 00:39:00,11.2,7.1,30.09,SSW,211,0.0,0.0,83,0.00,,---,0.00,VWS V14.01,2013-01-21 05:39:00,
2013-01-21 00:44:00,11.2,7.1,30.09,SSW,211,0.0,0.0,83,0.00,,---,0.00,VWS V14.01,2013-01-21 05:44:00,
2013-01-21 00:49:00,11.2,7.3,30.09,SSW,211,0.0,0.0,84,0.00,,---,0.00,VWS V14.01,2013-01-21 05:49:00,
2013-01-21 00:54:00,11.2,7.3,30.09,SSW,211,0.0,0.0,84,0.00,,---,0.00,VWS V14.01,2013-01-21 05:54:00,
2013-01-21 00:59:00,11.2,7.3,30.08,SSW,211,0.0,0.0,84,0.00,,---,0.00,VWS V14.01,2013-01-21 05:59:00,
2013-01-21 01:04:00,11.2,7.3,30.08,SSW,211,0.0,0.0,84,0.00,,---,0.00,VWS V14.01,2013-01-21 06:04:00,
2013-01-21 01:09:00,11.2,7.3,30.08,SSW,211,0.0,0.0,84,0.00,,---,0.00,VWS V14.01,2013-01-21 06:09:00,
2013-01-21 01:14:00,11.2,7.3,30.08,SSW,211,0.0,0.0,84,0.00,,---,0.00,VWS V14.01,2013-01-21 06:14:00,
2013-01-21 01:19:00,11.2,7.6,30.08,SSW,211,0.0,0.0,85,0.00,,---,0.00,VWS V14.01,2013-01-21 06:19:00,
2013-01-21 01:24:00,11.2,7.6,30.08,SSW,211,0.0,0.0,85,0.00,,---,0.00,VWS V14.01,2013-01-21 06:24:00,
2013-01-21 01:29:00,11.2,7.6,30.07,SSW,211,0.0,0.0,85,0.00,,---,0.00,VWS V14.01,2013-01-21 06:29:00,
2013-01-21 01:34:00,11.2,7.6,30.07,SSW,211,0.0,0.0,85,0.00,,---,0.00,VWS V14.01,2013-01-21 06:34:00,
2013-01-21 01:39:00,11.2,7.6,30.07,SSW,211,0.0,0.0,85,0.00,,---,0.00,VWS V14.01,2013-01-21 06:39:00,
2013-01-21 01:44:00,11.2,7.6,30.07,SSW,211,0.0,0.0,85,0.00,,---,0.00,VWS V14.01,2013-01-21 06:44:00,
2013-01-21 01:49:00,11.2,7.6,30.07,SSW,211,0.0,0.0,85,0.00,,---,0.00,VWS V14.01,2013-01-21 06:49:00,
2013-01-21 01:54:00,11.2,7.6,30.07,SSW,211,0.0,0.0,85,0.00,,---,0.00,VWS V14.01,2013-01-21 06:54:00,
2013-01-21 01:59:00,11.2,7.6,30.07,SSW,211,0.0,0.0,85,0.00,,---,0.00,VWS V14.01,2013-01-21 06:59:00,
2013-01-21 02:04:00,11.2,7.6,30.07,SSW,211,0.0,0.0,85,0.00,,---,0.00,VWS V14.01,2013-01-21 07:04:00,
2013-01-21 02:09:00,11.2,7.6,30.07,SSW,211,0.0,0.0,85,0.00,,---,0.00,VWS V14.01,2013-01-21 07:09:00,
2013-01-21 02:14:00,11.2,7.6,30.06,SSW,211,0.0,0.0,85,0.00,,---,0.00,VWS V14.01,2013-01-21 07:14:00,
2013-01-21 02:19:00,11.2,7.6,30.07,SSW,211,0.0,0.0,85,0.00,,---,0.00,VWS V14.01,2013-01-21 07:19:00,
2013-01-21 02:24:00,11.2,7.6,30.07,SSW,211,0.0,0.0,85,0.00,,---,0.00,VWS V14.01,2013-01-21 07:24:00,
2013-01-21 02:29:00,11.2,7.8,30.07,SSW,211,0.0,0.0,86,0.00,,---,0.00,VWS V14.01,2013-01-21 07:29:00,
2013-01-21 02:34:00,11.2,7.8,30.07,SSW,212,0.0,0.0,86,0.00,,---,0.00,VWS V14.01,2013-01-21 07:34:00,
2013-01-21 02:39:00,11.2,7.8,30.06,SSW,212,0.0,0.0,86,0.00,,---,0.00,VWS V14.01,2013-01-21 07:39:00,
2013-01-21 02:44:00,11.2,7.8,30.06,SSW,212,0.0,0.0,86,0.00,,---,0.00,VWS V14.01,2013-01-21 07:44:00,
2013-01-21 02:49:00,11.2,7.6,30.06,SSW,212,0.0,0.0,85,0.00,,---,0.00,VWS V14.01,2013-01-21 07:49:00,
2013-01-21 02:54:00,11.2,7.6,30.06,SSW,212,0.0,0.0,85,0.00,,---,0.00,VWS V14.01,2013-01-21 07:54:00,
2013-01-21 02:59:00,11.2,7.6,30.06,SSW,212,0.0,0.0,85,0.00,,---,0.00,VWS V14.01,2013-01-21 07:59:00,
2013-01-21 03:04:00,11.2,7.6,30.06,SSW,212,0.0,0.0,85,0.00,,---,0.00,VWS V14.01,2013-01-21 08:04:00,
2013-01-21 03:09:00,11.2,7.6,30.06,SSW,212,0.0,0.0,85,0.00,,---,0.00,VWS V14.01,2013-01-21 08:09:00,
2013-01-21 03:14:00,11.1,7.5,30.05,SSW,212,0.0,0.0,85,0.00,,---,0.00,VWS V14.01,2013-01-21 08:14:00,
2013-01-21 03:19:00,11.1,7.5,30.05,SSW,212,0.0,0.0,85,0.00,,---,0.00,VWS V14.01,2013-01-21 08:19:00,
2013-01-21 03:24:00,11.1,7.5,30.05,SSW,212,0.0,0.0,85,0.00,,---,0.00,VWS V14.01,2013-01-21 08:24:00,
2013-01-21 03:29:00,11.1,7.5,30.05,SSW,212,0.0,0.0,85,0.00,,---,0.00,VWS V14.01,2013-01-21 08:29:00,
2013-01-21 03:35:00,11.1,7.5,30.05,SSW,212,0.0,0.0,85,0.00,,---,0.00,VWS V14.01,2013-01-21 08:35:00,
2013-01-21 03:40:00,11.1,7.5,30.04,SSW,212,0.0,0.0,85,0.00,,---,0.00,VWS V14.01,2013-01-21 08:40:00,
2013-01-21 03:45:00,10.9,7.3,30.04,SSW,212,0.0,0.0,85,0.00,,---,0.00,VWS V14.01,2013-01-21 08:45:00,
2013-01-21 03:50:00,10.9,7.3,30.04,SSW,212,0.0,0.0,85,0.00,,---,0.00,VWS V14.01,2013-01-21 08:50:00,
2013-01-21 03:55:00,10.9,7.3,30.03,SSW,212,0.0,0.0,85,0.00,,---,0.00,VWS V14.01,2013-01-21 08:55:00,
2013-01-21 04:00:00,10.9,7.3,30.03,SSW,212,0.0,0.0,85,0.00,,---,0.00,VWS V14.01,2013-01-21 09:00:00,
2013-01-21 04:05:00,10.9,7.3,30.03,SSW,212,0.0,0.0,85,0.00,,---,0.00,VWS V14.01,2013-01-21 09:05:00,
2013-01-21 04:10:00,10.9,7.3,30.03,SSW,212,0.0,0.0,85,0.00,,---,0.00,VWS V14.01,2013-01-21 09:10:00,
2013-01-21 04:15:00,10.9,7.3,30.03,WNW,283,0.0,0.0,85,0.00,,---,0.00,VWS V14.01,2013-01-21 09:15:00,
2013-01-21 04:20:00,11.1,7.5,30.02,WNW,286,0.0,0.0,85,0.00,,---,0.00,VWS V14.01,2013-01-21 09:20:00,
2013-01-21 04:25:00,11.1,7.5,30.02,West,277,0.0,0.0,85,0.00,,---,0.00,VWS V14.01,2013-01-21 09:25:00,
2013-01-21 04:30:00,11.1,7.5,30.02,West,275,0.0,0.0,85,0.00,,---,0.00,VWS V14.01,2013-01-21 09:30:00,
2013-01-21 04:35:00,11.1,7.5,30.02,WNW,283,0.0,0.0,85,0.00,,---,0.00,VWS V14.01,2013-01-21 09:35:00,
2013-01-21 04:40:00,11.1,7.5,30.02,WSW,253,0.0,0.0,85,0.00,,---,0.00,VWS V14.01,2013-01-21 09:40:00,
2013-01-21 04:45:00,11.1,7.5,30.01,West,275,0.0,0.0,85,0.00,,---,0.00,VWS V14.01,2013-01-21 09:45:00,
2013-01-21 04:50:00,11.1,7.5,30.01,WNW,287,0.0,0.0,85,0.00,,---,0.00,VWS V14.01,2013-01-21 09:50:00,
2013-01-21 04:55:00,10.9,7.0,30.01,WNW,287,0.0,0.0,84,0.00,,---,0.00,VWS V14.01,2013-01-21 09:55:00,
2013-01-21 05:00:00,10.9,7.0,30.01,WNW,289,0.0,0.0,84,0.00,,---,0.00,VWS V14.01,2013-01-21 10:00:00,
2013-01-21 05:05:00,10.9,7.0,30.01,West,259,0.0,0.0,84,0.00,,---,0.00,VWS V14.01,2013-01-21 10:05:00,
2013-01-21 05:10:00,10.9,7.0,30.01,West,275,0.0,0.0,84,0.00,,---,0.00,VWS V14.01,2013-01-21 10:10:00,
2013-01-21 05:15:00,10.7,6.8,30.01,WNW,294,0.0,0.0,84,0.00,,---,0.00,VWS V14.01,2013-01-21 10:15:00,
2013-01-21 05:20:00,10.7,6.8,30.01,WSW,256,0.0,0.0,84,0.00,,---,0.00,VWS V14.01,2013-01-21 10:20:00,
2013-01-21 05:25:00,10.5,6.6,30.01,West,275,0.0,0.0,84,0.00,,---,0.00,VWS V14.01,2013-01-21 10:25:00,
2013-01-21 05:30:00,10.5,6.6,30.01,NW,306,0.0,0.0,84,0.00,,---,0.00,VWS V14.01,2013-01-21 10:30:00,
2013-01-21 05:35:00,10.4,6.3,30.00,WNW,290,0.0,0.0,83,0.00,,---,0.00,VWS V14.01,2013-01-21 10:35:00,
2013-01-21 05:40:00,10.4,6.0,30.00,WSW,255,0.0,0.0,82,0.00,,---,0.00,VWS V14.01,2013-01-21 10:40:00,
2013-01-21 05:45:00,10.2,5.5,30.00,West,281,0.0,0.0,81,0.00,,---,0.00,VWS V14.01,2013-01-21 10:45:00,
2013-01-21 05:50:00,10.2,5.5,30.00,West,278,0.0,0.0,81,0.00,,---,0.00,VWS V14.01,2013-01-21 10:50:00,
2013-01-21 05:55:00,10.2,5.5,30.00,West,269,0.0,0.0,81,0.00,,---,0.00,VWS V14.01,2013-01-21 10:55:00,
2013-01-21 06:00:00,10.0,5.1,30.00,West,262,0.0,0.0,80,0.00,,---,0.00,VWS V14.01,2013-01-21 11:00:00,
2013-01-21 06:05:00,10.0,5.3,30.00,SW,233,0.0,0.0,81,0.00,,---,0.00,VWS V14.01,2013-01-21 11:05:00,
2013-01-21 06:10:00,10.0,5.3,30.00,West,264,0.0,0.0,81,0.00,,---,0.00,VWS V14.01,2013-01-21 11:10:00,
2013-01-21 06:15:00,10.0,5.3,30.00,West,264,0.0,0.0,81,0.00,,---,0.00,VWS V14.01,2013-01-21 11:15:00,
2013-01-21 06:20:00,9.9,5.5,30.00,WSW,248,0.0,0.0,82,0.00,,---,0.00,VWS V14.01,2013-01-21 11:20:00,
2013-01-21 06:25:00,9.9,5.5,30.00,WNW,286,0.0,0.0,82,0.00,,---,0.00,VWS V14.01,2013-01-21 11:25:00,
2013-01-21 06:30:00,9.9,5.5,30.00,WSW,255,0.0,0.0,82,0.00,,---,0.00,VWS V14.01,2013-01-21 11:30:00,
2013-01-21 06:35:00,9.7,5.3,30.00,West,278,0.0,0.0,82,0.00,,---,0.00,VWS V14.01,2013-01-21 11:35:00,
2013-01-21 06:40:00,9.7,5.3,30.00,WSW,246,0.0,0.0,82,0.00,,---,0.00,VWS V14.01,2013-01-21 11:40:00,
2013-01-21 06:45:00,9.7,5.3,30.00,West,263,0.0,0.0,82,0.00,,---,0.00,VWS V14.01,2013-01-21 11:45:00,
2013-01-21 06:50:00,9.5,5.1,30.00,WSW,255,0.0,0.0,82,0.00,,---,0.00,VWS V14.01,2013-01-21 11:50:00,
2013-01-21 06:55:00,9.5,5.1,30.00,WNW,286,0.0,0.0,82,0.00,,---,0.00,VWS V14.01,2013-01-21 11:55:00,
2013-01-21 07:00:00,9.5,5.4,30.00,West,271,0.0,0.0,83,0.00,,---,0.00,VWS V14.01,2013-01-21 12:00:00,
2013-01-21 07:05:00,9.5,5.4,30.00,WSW,252,0.0,0.0,83,0.00,,---,0.00,VWS V14.01,2013-01-21 12:05:00,
2013-01-21 07:10:00,9.5,5.4,30.00,SW,234,0.0,0.0,83,0.00,,---,0.00,VWS V14.01,2013-01-21 12:10:00,
2013-01-21 07:15:00,9.5,5.4,30.00,West,265,0.0,0.0,83,0.00,,---,0.00,VWS V14.01,2013-01-21 12:15:00,
2013-01-21 07:20:00,9.3,5.2,29.99,SW,232,0.0,0.0,83,0.00,,---,0.00,VWS V14.01,2013-01-21 12:20:00,
2013-01-21 07:25:00,9.3,5.2,29.99,West,269,0.0,0.0,83,0.00,,---,0.00,VWS V14.01,2013-01-21 12:25:00,
2013-01-21 07:30:00,9.3,5.2,29.99,WSW,245,0.0,0.0,83,0.00,,---,0.00,VWS V14.01,2013-01-21 12:30:00,
2013-01-21 07:35:00,9.3,5.2,29.99,West,259,0.0,0.0,83,0.00,,---,0.00,VWS V14.01,2013-01-21 12:35:00,
2013-01-21 07:40:00,9.3,5.2,29.99,WSW,257,0.0,0.0,83,0.00,,---,0.00,VWS V14.01,2013-01-21 12:40:00,
2013-01-21 07:45:00,9.2,5.1,29.99,West,269,0.0,0.0,83,0.00,,---,0.00,VWS V14.01,2013-01-21 12:45:00,
2013-01-21 07:50:00,9.2,5.1,29.99,WSW,248,0.0,0.0,83,0.00,,---,0.00,VWS V14.01,2013-01-21 12:50:00,
2013-01-21 07:55:00,9.2,5.1,29.98,WSW,248,0.0,0.0,83,0.00,,---,0.00,VWS V14.01,2013-01-21 12:55:00,
2013-01-21 08:00:00,9.2,5.1,29.98,WSW,248,0.0,0.0,83,0.00,,---,0.00,VWS V14.01,2013-01-21 13:00:00,
2013-01-21 08:05:00,9.2,5.4,29.98,West,265,0.0,0.0,84,0.00,,---,0.00,VWS V14.01,2013-01-21 13:05:00,
2013-01-21 08:10:00,9.2,5.4,29.98,WNW,284,0.0,0.0,84,0.00,,---,0.00,VWS V14.01,2013-01-21 13:10:00,
2013-01-21 08:15:00,9.2,5.4,29.98,WNW,298,0.0,0.0,84,0.00,,---,0.00,VWS V14.01,2013-01-21 13:15:00,
2013-01-21 08:20:00,9.2,5.4,29.98,NW,317,0.0,0.0,84,0.00,,---,0.00,VWS V14.01,2013-01-21 13:20:00,
2013-01-21 08:25:00,9.2,5.4,29.98,West,279,0.0,0.0,84,0.00,,---,0.00,VWS V14.01,2013-01-21 13:25:00,
2013-01-21 08:30:00,9.0,5.2,29.98,WNW,300,0.0,0.0,84,0.00,,---,0.00,VWS V14.01,2013-01-21 13:30:00,
2013-01-21 08:35:00,9.0,4.9,29.98,West,271,0.0,0.0,83,0.00,,---,0.00,VWS V14.01,2013-01-21 13:35:00,
2013-01-21 08:40:00,9.0,4.9,29.98,WNW,284,0.0,0.0,83,0.00,,---,0.00,VWS V14.01,2013-01-21 13:40:00,
2013-01-21 08:45:00,8.8,4.7,29.98,NNW,327,0.0,0.0,83,0.00,,---,0.00,VWS V14.01,2013-01-21 13:45:00,
2013-01-21 08:50:00,8.8,4.7,29.98,WNW,282,0.0,0.0,83,0.00,,---,0.00,VWS V14.01,2013-01-21 13:50:00,
2013-01-21 08:55:00,8.8,4.4,29.98,WNW,296,0.0,0.0,82,0.00,,---,0.00,VWS V14.01,2013-01-21 13:55:00,
2013-01-21 09:01:00,9.0,4.6,29.98,West,271,0.0,0.0,82,0.00,,---,0.00,VWS V14.01,2013-01-21 14:01:00,
2013-01-21 09:06:00,9.2,4.8,29.98,West,276,0.0,0.0,82,0.00,,---,0.00,VWS V14.01,2013-01-21 14:06:00,
2013-01-21 09:11:00,9.3,4.9,29.98,West,278,0.0,0.0,82,0.00,,---,0.00,VWS V14.01,2013-01-21 14:11:00,
2013-01-21 09:16:00,9.3,4.7,29.98,WNW,297,0.0,0.0,81,0.00,,---,0.00,VWS V14.01,2013-01-21 14:16:00,
2013-01-21 09:21:00,9.3,4.7,29.98,NW,315,0.0,0.0,81,0.00,,---,0.00,VWS V14.01,2013-01-21 14:21:00,
2013-01-21 09:26:00,9.5,4.9,29.98,WNW,293,0.0,0.0,81,0.00,,---,0.00,VWS V14.01,2013-01-21 14:26:00,
2013-01-21 09:31:00,9.9,5.0,29.98,WNW,296,0.0,0.0,80,0.00,,---,0.00,VWS V14.01,2013-01-21 14:31:00,
2013-01-21 09:36:00,9.9,4.7,29.98,WNW,290,0.0,0.0,79,0.00,,---,0.00,VWS V14.01,2013-01-21 14:36:00,
2013-01-21 09:41:00,10.2,5.0,29.98,WNW,289,0.0,0.0,79,0.00,,---,0.00,VWS V14.01,2013-01-21 14:41:00,
2013-01-21 09:46:00,10.4,4.9,29.98,WNW,292,0.0,0.0,78,0.00,,---,0.00,VWS V14.01,2013-01-21 14:46:00,
2013-01-21 09:51:00,10.5,4.7,29.98,NW,312,0.0,0.0,77,0.00,,---,0.00,VWS V14.01,2013-01-21 14:51:00,
2013-01-21 09:56:00,10.4,4.1,29.98,WNW,296,0.0,0.0,75,0.00,,---,0.00,VWS V14.01,2013-01-21 14:56:00,
2013-01-21 10:01:00,10.5,3.9,29.98,NW,311,0.0,0.0,74,0.00,,---,0.00,VWS V14.01,2013-01-21 15:01:00,
2013-01-21 10:06:00,10.4,3.5,29.98,NW,311,0.0,0.0,73,0.00,,---,0.00,VWS V14.01,2013-01-21 15:06:00,
2013-01-21 10:11:00,10.5,3.9,29.98,West,281,0.0,0.0,74,0.00,,---,0.00,VWS V14.01,2013-01-21 15:11:00,
2013-01-21 10:16:00,10.5,3.9,29.98,WNW,286,0.0,0.0,74,0.00,,---,0.00,VWS V14.01,2013-01-21 15:16:00,
2013-01-21 10:21:00,10.5,4.2,29.99,WNW,296,0.0,0.0,75,0.00,,---,0.00,VWS V14.01,2013-01-21 15:21:00,
2013-01-21 10:26:00,10.5,4.2,29.99,WNW,285,0.0,0.0,75,0.00,,---,0.00,VWS V14.01,2013-01-21 15:26:00,
2013-01-21 10:31:00,10.5,4.4,29.99,WNW,288,0.0,0.0,76,0.00,,---,0.00,VWS V14.01,2013-01-21 15:31:00,
2013-01-21 10:36:00,10.9,5.1,29.99,West,265,0.0,0.0,77,0.00,,---,0.00,VWS V14.01,2013-01-21 15:36:00,
2013-01-21 10:41:00,11.1,5.0,29.99,WNW,297,0.0,0.0,76,0.00,,---,0.00,VWS V14.01,2013-01-21 15:41:00,
2013-01-21 10:46:00,11.1,4.7,29.99,WNW,293,0.0,0.0,75,0.00,,---,0.00,VWS V14.01,2013-01-21 15:46:00,
2013-01-21 10:51:00,11.1,5.0,29.99,NW,305,0.0,0.0,76,0.00,,---,0.00,VWS V14.01,2013-01-21 15:51:00,
2013-01-21 10:56:00,11.1,5.0,29.99,WNW,301,0.0,0.0,76,0.00,,---,0.00,VWS V14.01,2013-01-21 15:56:00,
2013-01-21 11:01:00,11.2,4.8,29.99,NNW,334,0.0,0.0,75,0.00,,---,0.00,VWS V14.01,2013-01-21 16:01:00,
2013-01-21 11:06:00,11.1,4.7,29.99,NNW,343,0.0,0.0,75,0.00,,---,0.00,VWS V14.01,2013-01-21 16:06:00,
2013-01-21 11:11:00,10.9,4.6,29.99,NNW,338,0.0,0.0,75,0.00,,---,0.00,VWS V14.01,2013-01-21 16:11:00,
2013-01-21 11:16:00,10.9,4.2,29.99,West,271,0.0,0.0,74,0.00,,---,0.00,VWS V14.01,2013-01-21 16:16:00,
2013-01-21 11:21:00,10.7,4.1,29.99,WNW,286,0.0,0.0,74,0.00,,---,0.00,VWS V14.01,2013-01-21 16:21:00,
2013-01-21 11:27:00,10.7,3.8,29.99,WNW,287,0.0,0.0,73,0.00,,---,0.00,VWS V14.01,2013-01-21 16:27:00,
2013-01-21 11:32:00,10.7,3.8,29.99,NW,317,0.0,0.0,73,0.00,,---,0.00,VWS V14.01,2013-01-21 16:32:00,
2013-01-21 11:37:00,10.4,3.8,29.99,NNW,331,0.0,0.0,74,0.00,,---,0.00,VWS V14.01,2013-01-21 16:37:00,
2013-01-21 11:42:00,10.4,4.1,29.99,NW,306,0.0,0.0,75,0.00,,---,0.00,VWS V14.01,2013-01-21 16:42:00,
2013-01-21 11:47:00,10.4,4.1,29.99,WNW,298,0.0,0.0,75,0.00,,---,0.00,VWS V14.01,2013-01-21 16:47:00,
2013-01-21 11:52:00,10.4,4.1,29.99,NW,309,0.0,0.0,75,0.00,,---,0.00,VWS V14.01,2013-01-21 16:52:00,
2013-01-21 11:57:00,10.4,4.1,29.99,NNE,14,0.0,0.0,75,0.00,,---,0.00,VWS V14.01,2013-01-21 16:57:00,
2013-01-21 12:02:00,10.5,4.2,29.99,WNW,286,0.0,0.0,75,0.00,,---,0.00,VWS V14.01,2013-01-21 17:02:00,
2013-01-21 12:07:00,10.4,3.8,29.99,NW,325,0.0,0.0,74,0.00,,---,0.00,VWS V14.01,2013-01-21 17:07:00,
2013-01-21 12:12:00,10.0,3.7,29.98,NW,325,0.0,0.0,75,0.00,,---,0.00,VWS V14.01,2013-01-21 17:12:00,
2013-01-21 12:17:00,9.9,3.6,29.98,NNW,344,0.0,0.0,75,0.00,,---,0.00,VWS V14.01,2013-01-21 17:17:00,
2013-01-21 12:22:00,9.9,3.6,29.98,North,5,0.0,0.0,75,0.00,,---,0.00,VWS V14.01,2013-01-21 17:22:00,
2013-01-21 12:27:00,9.5,3.2,29.98,WNW,283,0.0,0.0,75,0.00,,---,0.00,VWS V14.01,2013-01-21 17:27:00,
2013-01-21 12:32:00,9.5,3.2,29.98,WNW,284,0.0,0.0,75,0.00,,---,0.00,VWS V14.01,2013-01-21 17:32:00,
2013-01-21 12:37:00,9.7,3.4,29.98,West,260,0.0,0.0,75,0.00,,---,0.00,VWS V14.01,2013-01-21 17:37:00,
2013-01-21 12:42:00,9.5,3.2,29.98,North,351,0.0,0.0,75,0.00,,---,0.00,VWS V14.01,2013-01-21 17:42:00,
2013-01-21 12:47:00,9.3,3.0,29.98,NNW,329,0.0,0.0,75,0.00,,---,0.00,VWS V14.01,2013-01-21 17:47:00,
2013-01-21 12:52:00,9.3,3.0,29.97,NW,324,0.0,0.0,75,0.00,,---,0.00,VWS V14.01,2013-01-21 17:52:00,
2013-01-21 12:57:00,9.3,3.0,29.98,NNW,343,0.0,0.0,75,0.00,,---,0.00,VWS V14.01,2013-01-21 17:57:00,
2013-01-21 13:02:00,9.3,3.0,29.97,NNW,333,0.0,0.0,75,0.00,,---,0.00,VWS V14.01,2013-01-21 18:02:00,
2013-01-21 13:07:00,9.5,3.2,29.97,SW,227,0.0,0.0,75,0.00,,---,0.00,VWS V14.01,2013-01-21 18:07:00,
2013-01-21 13:12:00,9.5,2.6,29.97,NNW,327,0.0,0.0,73,0.00,,---,0.00,VWS V14.01,2013-01-21 18:12:00,
2013-01-21 13:17:00,9.3,2.1,29.97,West,272,0.0,0.0,72,0.00,,---,0.00,VWS V14.01,2013-01-21 18:17:00,
2013-01-21 13:22:00,9.3,1.5,29.97,NW,316,0.0,0.0,70,0.00,,---,0.00,VWS V14.01,2013-01-21 18:22:00,
2013-01-21 13:27:00,9.3,0.6,29.97,NW,304,0.0,0.0,67,0.00,,---,0.00,VWS V14.01,2013-01-21 18:27:00,
2013-01-21 13:32:00,9.7,0.6,29.97,SW,223,0.0,0.0,66,0.00,,---,0.00,VWS V14.01,2013-01-21 18:32:00,
2013-01-21 13:37:00,9.7,0.3,29.97,SSW,201,0.0,0.0,65,0.00,,---,0.00,VWS V14.01,2013-01-21 18:37:00,
2013-01-21 13:42:00,9.5,0.1,29.97,NW,311,0.0,0.0,65,0.00,,---,0.00,VWS V14.01,2013-01-21 18:42:00,
2013-01-21 13:47:00,9.5,1.1,29.97,NW,307,0.0,0.0,68,0.00,,---,0.00,VWS V14.01,2013-01-21 18:47:00,
2013-01-21 13:52:00,9.3,0.9,29.98,NNE,29,0.0,0.0,68,0.00,,---,0.00,VWS V14.01,2013-01-21 18:52:00,
2013-01-21 13:57:00,9.2,0.8,29.97,NW,322,0.0,0.0,68,0.00,,---,0.00,VWS V14.01,2013-01-21 18:57:00,
2013-01-21 14:02:00,9.2,0.5,29.97,NW,306,0.0,0.0,67,0.00,,---,0.00,VWS V14.01,2013-01-21 19:02:00,
2013-01-21 14:07:00,9.2,0.8,29.98,North,360,0.0,0.0,68,0.00,,---,0.00,VWS V14.01,2013-01-21 19:07:00,
2013-01-21 14:12:00,9.2,0.5,29.98,NNW,333,0.0,0.0,67,0.00,,---,0.00,VWS V14.01,2013-01-21 19:12:00,
2013-01-21 14:17:00,9.3,0.6,29.98,WNW,284,0.0,0.0,67,0.00,,---,0.00,VWS V14.01,2013-01-21 19:17:00,
2013-01-21 14:22:00,9.5,0.4,29.98,WNW,298,0.0,0.0,66,0.00,,---,0.00,VWS V14.01,2013-01-21 19:22:00,
2013-01-21 14:27:00,9.3,0.9,29.98,West,267,0.0,0.0,68,0.00,,---,0.00,VWS V14.01,2013-01-21 19:27:00,
2013-01-21 14:32:00,9.2,1.4,29.98,WNW,294,0.0,0.0,70,0.00,,---,0.00,VWS V14.01,2013-01-21 19:32:00,
2013-01-21 14:37:00,8.8,1.3,29.98,NW,313,0.0,0.0,71,0.00,,---,0.00,VWS V14.01,2013-01-21 19:37:00,
2013-01-21 14:42:00,8.8,1.3,29.98,WNW,294,0.0,0.0,71,0.00,,---,0.00,VWS V14.01,2013-01-21 19:42:00,
2013-01-21 14:47:00,8.4,1.5,29.98,NW,308,0.0,0.0,73,0.00,,---,0.00,VWS V14.01,2013-01-21 19:47:00,
2013-01-21 14:52:00,8.3,1.5,29.98,West,271,0.0,0.0,73,0.00,,---,0.00,VWS V14.01,2013-01-21 19:52:00,
2013-01-21 14:57:00,8.3,1.7,29.98,WNW,296,0.0,0.0,74,0.00,,---,0.00,VWS V14.01,2013-01-21 19:57:00,
2013-01-21 15:02:00,8.3,1.7,29.98,NW,304,0.0,0.0,74,0.00,,---,0.00,VWS V14.01,2013-01-21 20:02:00,
2013-01-21 15:07:00,8.4,2.1,29.98,NW,321,0.0,0.0,75,0.00,,---,0.00,VWS V14.01,2013-01-21 20:07:00,
2013-01-21 15:12:00,8.6,2.3,29.98,North,349,0.0,0.0,75,0.00,,---,0.00,VWS V14.01,2013-01-21 20:12:00,
2013-01-21 15:17:00,8.4,1.8,29.98,NW,308,0.0,0.0,74,0.00,,---,0.00,VWS V14.01,2013-01-21 20:17:00,
2013-01-21 15:22:00,8.3,1.7,29.99,NW,320,0.0,0.0,74,0.00,,---,0.00,VWS V14.01,2013-01-21 20:22:00,
2013-01-21 15:27:00,8.1,1.8,29.98,West,275,0.0,0.0,75,0.00,,---,0.00,VWS V14.01,2013-01-21 20:27:00,
2013-01-21 15:32:00,8.1,1.8,29.99,West,264,0.0,0.0,75,0.00,,---,0.00,VWS V14.01,2013-01-21 20:32:00,
2013-01-21 15:37:00,7.9,2.2,29.99,WSW,253,0.0,0.0,77,0.00,,---,0.00,VWS V14.01,2013-01-21 20:37:00,
2013-01-21 15:42:00,7.7,2.3,30.00,NNW,335,0.0,0.0,78,0.00,,---,0.00,VWS V14.01,2013-01-21 20:42:00,
2013-01-21 15:47:00,7.6,2.2,30.00,NW,325,0.0,0.0,78,0.00,,---,0.00,VWS V14.01,2013-01-21 20:47:00,
2013-01-21 15:52:00,7.4,2.0,30.00,NNW,328,0.0,0.0,78,0.00,,---,0.00,VWS V14.01,2013-01-21 20:52:00,
2013-01-21 15:57:00,7.2,2.1,30.00,WNW,283,0.0,0.0,79,0.00,,---,0.00,VWS V14.01,2013-01-21 20:57:00,
2013-01-21 16:02:00,7.0,1.9,30.00,North,350,0.0,0.0,79,0.00,,---,0.00,VWS V14.01,2013-01-21 21:02:00,
2013-01-21 16:07:00,6.9,1.8,30.00,NW,312,0.0,0.0,79,0.00,,---,0.00,VWS V14.01,2013-01-21 21:07:00,
2013-01-21 16:12:00,6.7,1.6,30.00,WNW,283,0.0,0.0,79,0.00,,---,0.00,VWS V14.01,2013-01-21 21:12:00,
2013-01-21 16:17:00,6.7,1.6,30.00,North,360,0.0,0.0,79,0.00,,---,0.00,VWS V14.01,2013-01-21 21:17:00,
2013-01-21 16:22:00,6.7,1.6,30.01,NW,318,0.0,0.0,79,0.00,,---,0.00,VWS V14.01,2013-01-21 21:22:00,
2013-01-21 16:27:00,6.5,1.4,30.01,NW,312,0.0,0.0,79,0.00,,---,0.00,VWS V14.01,2013-01-21 21:27:00,
2013-01-21 16:32:00,6.5,1.4,30.01,NE,55,0.0,0.0,79,0.00,,---,0.00,VWS V14.01,2013-01-21 21:32:00,
2013-01-21 16:37:00,6.3,1.2,30.01,NNW,331,0.0,0.0,79,0.00,,---,0.00,VWS V14.01,2013-01-21 21:37:00,
2013-01-21 16:42:00,6.3,1.5,30.01,West,268,0.0,0.0,80,0.00,,---,0.00,VWS V14.01,2013-01-21 21:42:00,
2013-01-21 16:47:00,6.3,1.2,30.01,WNW,288,0.0,0.0,79,0.00,,---,0.00,VWS V14.01,2013-01-21 21:47:00,
2013-01-21 16:52:00,6.1,1.0,30.01,WNW,297,0.0,0.0,79,0.00,,---,0.00,VWS V14.01,2013-01-21 21:52:00,
2013-01-21 16:57:00,6.1,1.0,30.01,WNW,296,0.0,0.0,79,0.00,,---,0.00,VWS V14.01,2013-01-21 21:57:00,
2013-01-21 17:02:00,6.1,1.0,30.01,West,277,0.0,0.0,79,0.00,,---,0.00,VWS V14.01,2013-01-21 22:02:00,
2013-01-21 17:07:00,6.0,0.9,30.01,West,280,0.0,0.0,79,0.00,,---,0.00,VWS V14.01,2013-01-21 22:07:00,
2013-01-21 17:12:00,6.0,0.9,30.01,West,273,0.0,0.0,79,0.00,,---,0.00,VWS V14.01,2013-01-21 22:12:00,
2013-01-21 17:17:00,5.8,0.7,30.01,West,275,0.0,0.0,79,0.00,,---,0.00,VWS V14.01,2013-01-21 22:17:00,
2013-01-21 17:22:00,5.8,0.4,30.02,WNW,289,0.0,0.0,78,0.00,,---,0.00,VWS V14.01,2013-01-21 22:22:00,
2013-01-21 17:27:00,5.6,0.0,30.01,West,259,0.0,0.0,77,0.00,,---,0.00,VWS V14.01,2013-01-21 22:27:00,
2013-01-21 17:33:00,5.6,0.0,30.01,West,263,0.0,0.0,77,0.00,,---,0.00,VWS V14.01,2013-01-21 22:33:00,
2013-01-21 17:38:00,5.6,0.0,30.01,West,266,0.0,0.0,77,0.00,,---,0.00,VWS V14.01,2013-01-21 22:38:00,
2013-01-21 17:43:00,5.6,0.0,30.01,WNW,288,0.0,0.0,77,0.00,,---,0.00,VWS V14.01,2013-01-21 22:43:00,
2013-01-21 17:48:00,5.4,-0.2,30.02,WSW,239,0.0,0.0,77,0.00,,---,0.00,VWS V14.01,2013-01-21 22:48:00,
2013-01-21 17:53:00,5.4,0.0,30.02,West,262,0.0,0.0,78,0.00,,---,0.00,VWS V14.01,2013-01-21 22:53:00,
2013-01-21 17:58:00,5.4,0.0,30.02,West,270,0.0,0.0,78,0.00,,---,0.00,VWS V14.01,2013-01-21 22:58:00,
2013-01-21 18:03:00,5.2,-0.2,30.02,West,268,0.0,0.0,78,0.00,,---,0.00,VWS V14.01,2013-01-21 23:03:00,
2013-01-21 18:08:00,5.2,-0.2,30.02,WSW,243,0.0,0.0,78,0.00,,---,0.00,VWS V14.01,2013-01-21 23:08:00,
2013-01-21 18:13:00,5.2,-0.4,30.02,West,274,0.0,0.0,77,0.00,,---,0.00,VWS V14.01,2013-01-21 23:13:00,
2013-01-21 18:18:00,5.2,-0.4,30.03,NW,311,0.0,0.0,77,0.00,,---,0.00,VWS V14.01,2013-01-21 23:18:00,
2013-01-21 18:23:00,5.2,-0.4,30.03,West,266,0.0,0.0,77,0.00,,---,0.00,VWS V14.01,2013-01-21 23:23:00,
2013-01-21 18:28:00,5.2,-0.4,30.03,WNW,286,0.0,0.0,77,0.00,,---,0.00,VWS V14.01,2013-01-21 23:28:00,
2013-01-21 18:33:00,5.4,0.0,30.03,West,269,0.0,0.0,78,0.00,,---,0.00,VWS V14.01,2013-01-21 23:33:00,
2013-01-21 18:38:00,5.4,0.3,30.03,WNW,296,0.0,0.0,79,0.00,,---,0.00,VWS V14.01,2013-01-21 23:38:00,
2013-01-21 18:43:00,5.4,0.3,30.03,West,272,0.0,0.0,79,0.00,,---,0.00,VWS V14.01,2013-01-21 23:43:00,
2013-01-21 18:48:00,5.4,0.3,30.04,NW,315,0.0,0.0,79,0.00,,---,0.00,VWS V14.01,2013-01-21 23:48:00,
2013-01-21 18:53:00,5.4,0.6,30.04,WNW,290,0.0,0.0,80,0.00,,---,0.00,VWS V14.01,2013-01-21 23:53:00,
2013-01-21 18:58:00,5.4,0.6,30.04,NNW,336,0.0,0.0,80,0.00,,---,0.00,VWS V14.01,2013-01-21 23:58:00,
2013-01-21 19:03:00,5.4,0.6,30.03,WSW,256,0.0,0.0,80,0.00,,---,0.00,VWS V14.01,2013-01-22 00:03:00,
2013-01-21 19:08:00,5.2,0.1,30.04,NNW,331,0.0,0.0,79,0.00,,---,0.00,VWS V14.01,2013-01-22 00:08:00,
2013-01-21 19:13:00,5.2,0.1,30.04,North,351,0.0,0.0,79,0.00,,---,0.00,VWS V14.01,2013-01-22 00:13:00,
2013-01-21 19:18:00,5.2,0.1,30.04,WNW,288,0.0,0.0,79,0.00,,---,0.00,VWS V14.01,2013-01-22 00:18:00,
2013-01-21 19:23:00,5.2,-0.2,30.05,NNE,33,0.0,0.0,78,0.00,,---,0.00,VWS V14.01,2013-01-22 00:23:00,
2013-01-21 19:28:00,5.0,-0.6,30.05,NNE,25,0.0,0.0,77,0.00,,---,0.00,VWS V14.01,2013-01-22 00:28:00,
2013-01-21 19:33:00,5.0,-0.6,30.05,North,355,0.0,0.0,77,0.00,,---,0.00,VWS V14.01,2013-01-22 00:33:00,
2013-01-21 19:38:00,5.0,-0.3,30.05,NNE,21,0.0,0.0,78,0.00,,---,0.00,VWS V14.01,2013-01-22 00:38:00,
2013-01-21 19:43:00,4.8,-0.5,30.05,NW,311,0.0,0.0,78,0.00,,---,0.00,VWS V14.01,2013-01-22 00:43:00,
2013-01-21 19:48:00,4.8,-0.5,30.05,NNW,346,0.0,0.0,78,0.00,,---,0.00,VWS V14.01,2013-01-22 00:48:00,
2013-01-21 19:53:00,4.8,-0.3,30.05,WNW,296,0.0,0.0,79,0.00,,---,0.00,VWS V14.01,2013-01-22 00:53:00,
2013-01-21 19:58:00,4.7,-0.4,30.05,NW,321,0.0,0.0,79,0.00,,---,0.00,VWS V14.01,2013-01-22 00:58:00,
2013-01-21 20:03:00,4.7,-0.4,30.05,NNW,341,0.0,0.0,79,0.00,,---,0.00,VWS V14.01,2013-01-22 01:03:00,
2013-01-21 20:08:00,4.5,-0.6,30.06,NW,313,0.0,0.0,79,0.00,,---,0.00,VWS V14.01,2013-01-22 01:08:00,
2013-01-21 20:13:00,4.5,-0.3,30.06,SW,225,0.0,0.0,80,0.00,,---,0.00,VWS V14.01,2013-01-22 01:13:00,
2013-01-21 20:18:00,4.3,-0.5,30.06,North,355,0.0,0.0,80,0.00,,---,0.00,VWS V14.01,2013-01-22 01:18:00,
2013-01-21 20:23:00,4.1,-0.7,30.06,NNW,328,0.0,0.0,80,0.00,,---,0.00,VWS V14.01,2013-01-22 01:23:00,
2013-01-21 20:28:00,4.1,-0.7,30.07,NW,325,0.0,0.0,80,0.00,,---,0.00,VWS V14.01,2013-01-22 01:28:00,
2013-01-21 20:33:00,3.9,-0.9,30.07,North,355,0.0,0.0,80,0.00,,---,0.00,VWS V14.01,2013-01-22 01:33:00,
2013-01-21 20:39:00,3.9,-0.9,30.07,WNW,296,0.0,0.0,80,0.00,,---,0.00,VWS V14.01,2013-01-22 01:39:00,
2013-01-21 20:43:00,3.7,-1.1,30.07,NNW,327,0.0,0.0,80,0.00,,---,0.00,VWS V14.01,2013-01-22 01:43:00,
2013-01-21 20:49:00,3.5,-1.0,30.07,North,9,0.0,0.0,81,0.00,,---,0.00,VWS V14.01,2013-01-22 01:49:00,
2013-01-21 20:54:00,3.4,-1.4,30.08,WNW,294,0.0,0.0,80,0.00,,---,0.00,VWS V14.01,2013-01-22 01:54:00,
2013-01-21 20:59:00,3.2,-1.6,30.07,NW,307,0.0,0.0,80,0.00,,---,0.00,VWS V14.01,2013-01-22 01:59:00,
2013-01-21 21:04:00,3.0,-1.8,30.07,NW,321,0.0,0.0,80,0.00,,---,0.00,VWS V14.01,2013-01-22 02:04:00,
2013-01-21 21:09:00,2.8,-2.0,30.07,NW,326,0.0,0.0,80,0.00,,---,0.00,VWS V14.01,2013-01-22 02:09:00,
2013-01-21 21:14:00,2.6,-2.2,30.08,NW,313,0.0,0.0,80,0.00,,---,0.00,VWS V14.01,2013-01-22 02:14:00,
2013-01-21 21:19:00,2.6,-2.2,30.08,NW,320,0.0,0.0,80,0.00,,---,0.00,VWS V14.01,2013-01-22 02:19:00,
2013-01-21 21:24:00,2.4,-2.3,30.08,North,11,0.0,0.0,80,0.00,,---,0.00,VWS V14.01,2013-01-22 02:24:00,
2013-01-21 21:29:00,2.2,-2.5,30.08,WNW,303,0.0,0.0,80,0.00,,---,0.00,VWS V14.01,2013-01-22 02:29:00,
2013-01-21 21:34:00,2.2,-2.5,30.09,North,355,0.0,0.0,80,0.00,,---,0.00,VWS V14.01,2013-01-22 02:34:00,
2013-01-21 21:39:00,2.0,-2.7,30.09,NNW,332,0.0,0.0,80,0.00,,---,0.00,VWS V14.01,2013-01-22 02:39:00,
2013-01-21 21:44:00,2.0,-3.0,30.09,NNE,22,0.0,0.0,79,0.00,,---,0.00,VWS V14.01,2013-01-22 02:44:00,
2013-01-21 21:49:00,1.8,-2.9,30.09,NW,323,0.0,0.0,80,0.00,,---,0.00,VWS V14.01,2013-01-22 02:49:00,
2013-01-21 21:54:00,1.8,-2.9,30.09,North,355,0.0,0.0,80,0.00,,---,0.00,VWS V14.01,2013-01-22 02:54:00,
2013-01-21 21:59:00,1.8,-2.9,30.09,WNW,301,0.0,0.0,80,0.00,,---,0.00,VWS V14.01,2013-01-22 02:59:00,
2013-01-21 22:04:00,1.7,-3.3,30.09,NW,317,0.0,0.0,79,0.00,,---,0.00,VWS V14.01,2013-01-22 03:04:00,
2013-01-21 22:09:00,1.7,-3.3,30.09,NNW,334,0.0,0.0,79,0.00,,---,0.00,VWS V14.01,2013-01-22 03:09:00,
2013-01-21 22:14:00,1.7,-3.3,30.09,North,360,0.0,0.0,79,0.00,,---,0.00,VWS V14.01,2013-01-22 03:14:00,
2013-01-21 22:19:00,1.5,-3.5,30.09,NW,313,0.0,0.0,79,0.00,,---,0.00,VWS V14.01,2013-01-22 03:19:00,
2013-01-21 22:24:00,1.5,-3.5,30.09,NW,304,0.0,0.0,79,0.00,,---,0.00,VWS V14.01,2013-01-22 03:24:00,
2013-01-21 22:29:00,1.5,-3.5,30.10,NW,314,0.0,0.0,79,0.00,,---,0.00,VWS V14.01,2013-01-22 03:29:00,
2013-01-21 22:34:00,1.3,-3.7,30.09,NW,321,0.0,0.0,79,0.00,,---,0.00,VWS V14.01,2013-01-22 03:34:00,
2013-01-21 22:39:00,1.3,-3.7,30.09,NW,319,0.0,0.0,79,0.00,,---,0.00,VWS V14.01,2013-01-22 03:39:00,
2013-01-21 22:44:00,1.3,-3.7,30.09,North,10,0.0,0.0,79,0.00,,---,0.00,VWS V14.01,2013-01-22 03:44:00,
2013-01-21 22:49:00,1.3,-3.7,30.09,North,360,0.0,0.0,79,0.00,,---,0.00,VWS V14.01,2013-01-22 03:49:00,
2013-01-21 22:54:00,1.3,-3.7,30.10,North,360,0.0,0.0,79,0.00,,---,0.00,VWS V14.01,2013-01-22 03:54:00,
2013-01-21 22:59:00,1.1,-4.1,30.10,West,259,0.0,0.0,78,0.00,,---,0.00,VWS V14.01,2013-01-22 03:59:00,
2013-01-21 23:04:00,1.1,-4.1,30.10,West,281,0.0,0.0,78,0.00,,---,0.00,VWS V14.01,2013-01-22 04:04:00,
2013-01-21 23:09:00,1.1,-4.4,30.10,NNW,338,0.0,0.0,77,0.00,,---,0.00,VWS V14.01,2013-01-22 04:09:00,
2013-01-21 23:14:00,1.1,-4.1,30.10,NNW,336,0.0,0.0,78,0.00,,---,0.00,VWS V14.01,2013-01-22 04:14:00,
2013-01-21 23:19:00,1.1,-4.1,30.10,West,273,0.0,0.0,78,0.00,,---,0.00,VWS V14.01,2013-01-22 04:19:00,
2013-01-21 23:24:00,1.1,-3.9,30.10,WNW,302,0.0,0.0,79,0.00,,---,0.00,VWS V14.01,2013-01-22 04:24:00,
2013-01-21 23:30:00,1.1,-3.9,30.10,WNW,286,0.0,0.0,79,0.00,,---,0.00,VWS V14.01,2013-01-22 04:30:00,
2013-01-21 23:35:00,1.1,-3.9,30.10,NW,309,0.0,0.0,79,0.00,,---,0.00,VWS V14.01,2013-01-22 04:35:00,
2013-01-21 23:40:00,0.9,-4.1,30.10,NW,309,0.0,0.0,79,0.00,,---,0.00,VWS V14.01,2013-01-22 04:40:00,
2013-01-21 23:45:00,0.9,-4.1,30.10,NW,312,0.0,0.0,79,0.00,,---,0.00,VWS V14.01,2013-01-22 04:45:00,
2013-01-21 23:50:00,0.9,-4.1,30.10,WNW,284,0.0,0.0,79,0.00,,---,0.00,VWS V14.01,2013-01-22 04:50:00,
2013-01-21 23:55:00,0.9,-4.3,30.10,WNW,284,0.0,0.0,78,0.00,,---,0.00,VWS V14.01,2013-01-22 04:55:00,